sat.trackr.live / text

‹ back to catalog

STARLINK-2222

NORAD 48572 · 2021-041V

PAYLOAD ACTIVE UNKNOWN

§ Identity

Operator
Country
US
Launch date
2021-05-15
Launch site
AFETR
Launch vehicle
Mass (kg)
RCS (m²)

Purposes: comms

External: N2YO · Heavens-Above · Gunter

§ Orbital elements

Epoch: 2026-05-24T17:55:23.850912Z

Period
94.01 min
Inclination
53.1612°
Eccentricity
0.0001515
Mean motion
15.31704305 rev/d
Perigee alt
469.7 km
Apogee alt
471.8 km
Semi-major
6,848.9 km
B*
8.7937e-6
RAAN
155.1733°
Arg perigee
96.7169°
Mean anomaly
263.4005°
Rev number
27,660

§ Raw data

STARLINK-22221 48572U 21041V   26144.74680383 -.00000092  00000+0  87937-5 0  99902 48572  53.1612 155.1733 0001515  96.7169 263.4005 15.31704305276601

JSON: /api/v1/satellites/48572 · /tle

For live sub-satellite position, see the globe view (requires WebGL).

§ Visibility from observer

Set your observer location to see the next 7 days of passes ≥ 10°. The values pass through the URL so the page stays shareable.

No JS? Fill the form by hand. The geolocation button needs JavaScript.